TimeCDT,TemperatureF,Dew PointF,Humidity,Sea Level PressureIn,VisibilityMPH,Wind Direction,Wind SpeedMPH,Gust SpeedMPH,PrecipitationIn,Events,Conditions,WindDirDegrees,DateUTC
12:56 AM,57.0,53.1,87,30.12,10.0,East,4.6,-,N/A,,Clear,80,2014-04-20 05:56:00
1:56 AM,55.9,48.9,77,30.12,10.0,ENE,8.1,-,N/A,,Clear,60,2014-04-20 06:56:00
2:56 AM,54.0,48.0,80,30.12,10.0,ENE,3.5,-,N/A,,Clear,60,2014-04-20 07:56:00
3:56 AM,53.1,46.9,80,30.12,10.0,NE,5.8,-,N/A,,Clear,50,2014-04-20 08:56:00
4:35 AM,53.6,46.4,77,30.12,10.0,NE,5.8,-,N/A,,Mostly Cloudy,40,2014-04-20 09:35:00
5:56 AM,55.0,48.0,77,30.13,10.0,ENE,9.2,-,N/A,,Overcast,60,2014-04-20 10:56:00
6:56 AM,55.0,48.0,77,30.16,10.0,ENE,10.4,-,N/A,,Overcast,60,2014-04-20 11:56:00
7:56 AM,-9999,-9999,N/A,-9999,10.0,NE,10.4,-,N/A,,Unknown,50,2014-04-20 12:56:00
8:56 AM,55.9,48.9,77,30.20,10.0,ENE,10.4,-,N/A,,Overcast,70,2014-04-20 13:56:00
9:56 AM,57.0,48.9,74,30.22,10.0,East,11.5,-,N/A,,Overcast,80,2014-04-20 14:56:00
10:56 AM,57.9,50.0,75,30.22,10.0,ENE,8.1,-,N/A,,Overcast,70,2014-04-20 15:56:00
11:56 AM,61.0,51.1,70,30.21,10.0,ENE,11.5,-,N/A,,Overcast,70,2014-04-20 16:56:00
12:56 PM,64.0,51.1,63,30.18,10.0,NE,12.7,18.4,N/A,,Mostly Cloudy,50,2014-04-20 17:56:00
1:22 PM,66.2,51.8,60,30.19,10.0,NE,8.1,19.6,N/A,,Scattered Clouds,50,2014-04-20 18:22:00
1:56 PM,68.0,52.0,56,30.17,10.0,Variable,4.6,-,N/A,,Scattered Clouds,0,2014-04-20 18:56:00
2:56 PM,70.0,52.0,53,30.14,10.0,ENE,6.9,-,N/A,,Partly Cloudy,70,2014-04-20 19:56:00
3:56 PM,72.0,53.1,51,30.13,10.0,NE,8.1,-,N/A,,Clear,40,2014-04-20 20:56:00
4:56 PM,73.0,53.1,49,30.12,10.0,ENE,5.8,-,N/A,,Clear,70,2014-04-20 21:56:00
5:56 PM,72.0,53.1,51,30.11,10.0,ENE,4.6,-,N/A,,Clear,70,2014-04-20 22:56:00
6:56 PM,69.1,54.0,58,30.10,10.0,Calm,Calm,-,N/A,,Clear,0,2014-04-20 23:56:00
7:56 PM,64.0,55.9,75,30.12,10.0,Calm,Calm,-,N/A,,Clear,0,2014-04-21 00:56:00
8:56 PM,61.0,55.9,83,30.13,10.0,South,3.5,-,N/A,,Clear,190,2014-04-21 01:56:00
9:56 PM,60.1,55.0,83,30.14,10.0,Calm,Calm,-,N/A,,Clear,0,2014-04-21 02:56:00
10:56 PM,57.9,54.0,87,30.14,10.0,Calm,Calm,-,N/A,,Clear,0,2014-04-21 03:56:00
11:56 PM,55.9,53.1,90,30.13,10.0,Calm,Calm,-,N/A,,Clear,0,2014-04-21 04:56:00